Regional Weather Roundup
Issued by NWS

Home | Current Version | Previous Version | Graphics & Text | Print | Product List | Glossary On
Versions: 1 2 3 4 5 6 7 8 9 10 11 12 13 14 15 16 17 18 19 20 21 22 23 24 25 26 27 28 29 30 31 32 33 34 35 36 37 38 39 40 41 42 43 44 45 46 47 48 49 50
782
ASUS43 KFSD 260302
RWRSD

WEATHER ROUNDUP FOR SOUTH DAKOTA
NATIONAL WEATHER SERVICE SIOUX FALLS SD
1000 PM CDT SUN JUN 25 2017

NOTE: "FAIR" INDICATES FEW OR NO CLOUDS BELOW 12,000 FEET WITH NO
SIGNIFICANT WEATHER AND/OR OBSTRUCTIONS TO VISIBILITY.


SDZ001>005-009-010-012>017-260400-
NORTHWEST AND NORTH CENTRAL SOUTH DAKOTA

CITY           SKY/WX    TMP DP  RH WIND       PRES   REMARKS
BUFFALO          N/A     62  38  40 NE12      30.17S
FAITH            N/A     62  41  46 E10       30.22R
MOBRIDGE       CLEAR     62  44  51 E13       30.19R
$$

SDZ012>016-024>037-041>051-057-063-072>074-260400-
SOUTHWEST AND SOUTH CENTRAL SOUTH DAKOTA

CITY           SKY/WX    TMP DP  RH WIND       PRES   REMARKS
RAPID CTY ARPT CLEAR     63  29  27 N10       30.20R
PIERRE         CLEAR     61  45  55 NE10      30.17R
CUSTER         CLEAR     60  34  37 NE6       30.32R
ELLSWORTH AFB  CLEAR     70  29  21 N10       30.20R
PHILIP         CLEAR     65  41  41 NE13      30.17R
PINE RIDGE     CLOUDY    66  44  45 NE8       30.20R
SPEARFISH      FAIR      59  36  41 CALM      30.26R
WINNER         FAIR      68  40  35 S3        30.14S
$$

SDZ004>011-016>023-039-040-260400-
NORTHEAST SOUTH DAKOTA

CITY           SKY/WX    TMP DP  RH WIND       PRES   REMARKS
ABERDEEN       PTCLDY    56  48  74 N6        30.21R
WATERTOWN      CLEAR     54  50  86 CALM      30.19S
BROOKINGS      MOCLDY    55  51  86 N3        30.20R
SISSETON         N/A     57  48  72 NW6       30.18S
$$

SDZ017-020-022-023-036>040-048>070-260400-
SOUTHEAST SOUTH DAKOTA

CITY           SKY/WX    TMP DP  RH WIND       PRES   REMARKS
SIOUX FALLS    MOCLDY    59  48  67 SE6       30.16F
HURON          MOCLDY    60  49  66 NE8       30.18R
CHAMBERLAIN    CLEAR     70  45  40 NE3       30.14R
MITCHELL       PTCLDY    61  51  70 NE7       30.16R
YANKTON        CLEAR     65  45  48 E5        30.17S
$$

ABBREVIATIONS USED IN REMARKS
   TC - TEMPERATURE IN CELSIUS
  WCI - WIND CHILL INDEX
   HX - HEAT INDEX
  VSB - VISIBILITY





USA.gov is the U.S. government's official web portal to all federal, state and local government web resources and services.